User: anonymous   Login
Location: Alfortville
(48.8058°N, 2.4204°E)
Time: 17:08:48
(UTC+00:00)
Language:

Cosmos 2333 - Orbit

View from above orbital plane
View from above orbital plane
View from above satellite
View from above satellite

Ground track
Ground track

The orbit data is extracted from the following two-line orbital elements,

1 24297U 96051A   22021.70123649 -.00000155  00000-0 -56851-4 0  9996
2 24297  70.9067 119.0708 0025109 212.1669 147.7922 14.13377299309139
Epoch (UTC): 21 January 2022 16:49:46
Eccentricity: 0.0025109
inclination: 70.9067°
perigee height: 829 km
apogee height: 866 km
right ascension of ascending node: 119.0708°
argument of perigee: 212.1669°
revolutions per day: 14.13377299
mean anomaly at epoch: 147.7922°
orbit number at epoch: 30913

The dashed part of the orbit path shows where the satellite is in the earth's shadow,  

DLR